When you browse on this site, cookies collect data to enhance your experience and personalize the content and advertising you see.
Visit our Privacy Policy to learn more. By continuing to use the site, you agree to this use of cookies and data.
  • In Netherlands
  • List of Countries
  • For 7 days
  • Water Temperature
  • Weather Map
  • Weather Widgets
  • user-avatar
    Login

    Hourly Weather Sanachino

    Today, 25 May, Monday

    Time Temperature Precipitation Wind Pressure Humidity
    00:00 +5°C° 0 mm 1 mps 745 mmHg 95%
    01:00 +5°C° 0 mm 1 mps 746 mmHg 95%
    02:00 +5°C° 0 mm 1 mps 746 mmHg 96%
    03:00 +5°C° 0 mm 1 mps 746 mmHg 95%
    04:00 +6°C° 0 mm 1 mps 746 mmHg 93%
    05:00 +7°C° 0 mm 1 mps 746 mmHg 91%
    06:00 +8°C° 0 mm 0 mps 747 mmHg 84%
    07:00 +10°C° 0 mm 0 mps 747 mmHg 77%
    08:00 +12°C° 0 mm 0 mps 747 mmHg 69%
    09:00 +14°C° 0 mm 0 mps 747 mmHg 62%
    10:00 +16°C° 0 mm 1 mps 748 mmHg 54%
    11:00 +19°C° 0 mm 1 mps 748 mmHg 47%
    12:00 +18°C° 0.1 mm 1 mps 748 mmHg 49%
    13:00 +18°C° 0.1 mm 1 mps 748 mmHg 50%
    14:00 +18°C° 0.1 mm 1 mps 748 mmHg 52%
    15:00 +16°C° 0.3 mm 1 mps 748 mmHg 57%
    16:00 +16°C° 0.3 mm 1 mps 749 mmHg 62%
    17:00 +16°C° 0.3 mm 1 mps 749 mmHg 67%
    18:00 +14°C° 0 mm 1 mps 749 mmHg 72%
    19:00 +12°C° 0 mm 1 mps 750 mmHg 77%
    20:00 +11°C° 0 mm 1 mps 750 mmHg 82%
    21:00 +10°C° 0 mm 1 mps 751 mmHg 84%
    22:00 +8°C° 0 mm 0 mps 751 mmHg 86%
    23:00 +7°C° 0 mm 0 mps 751 mmHg 88%

    Tomorrow, 26 May, Tuesday

    Time Temperature Precipitation Wind Pressure Humidity
    00:00 +7°C° 0 mm 0 mps 751 mmHg 89%
    01:00 +7°C° 0 mm 0 mps 752 mmHg 89%
    02:00 +6°C° 0 mm 0 mps 752 mmHg 90%
    03:00 +7°C° 0 mm 0 mps 752 mmHg 89%
    04:00 +8°C° 0 mm 0 mps 752 mmHg 87%
    05:00 +9°C° 0 mm 0 mps 752 mmHg 86%
    06:00 +11°C° 0 mm 1 mps 753 mmHg 79%
    07:00 +13°C° 0 mm 1 mps 753 mmHg 72%
    08:00 +15°C° 0 mm 1 mps 753 mmHg 65%
    09:00 +18°C° 0 mm 1 mps 753 mmHg 60%
    10:00 +19°C° 0 mm 1 mps 753 mmHg 55%
    11:00 +20°C° 0 mm 1 mps 753 mmHg 49%
    12:00 +20°C° 0 mm 1 mps 753 mmHg 48%
    13:00 +19°C° 0 mm 2 mps 753 mmHg 47%
    14:00 +19°C° 0 mm 2 mps 753 mmHg 46%
    15:00 +19°C° 0.1 mm 2 mps 752 mmHg 51%
    16:00 +18°C° 0.1 mm 3 mps 752 mmHg 56%
    17:00 +17°C° 0.1 mm 3 mps 752 mmHg 61%
    18:00 +16°C° 0 mm 3 mps 752 mmHg 68%
    19:00 +14°C° 0 mm 2 mps 752 mmHg 76%
    20:00 +12°C° 0 mm 2 mps 752 mmHg 83%
    21:00 +12°C° 0 mm 2 mps 752 mmHg 86%
    22:00 +11°C° 0 mm 1 mps 752 mmHg 89%
    23:00 +10°C° 0 mm 1 mps 751 mmHg 92%

    Day after tomorrow, 27 May, Wednesday

    Time Temperature Precipitation Wind Pressure Humidity
    00:00 +10°C° 0 mm 1 mps 751 mmHg 92%
    01:00 +10°C° 0 mm 1 mps 751 mmHg 91%
    02:00 +11°C° 0 mm 1 mps 751 mmHg 91%
    03:00 +11°C° 0.1 mm 1 mps 751 mmHg 91%
    04:00 +11°C° 0.1 mm 1 mps 750 mmHg 91%
    05:00 +10°C° 0.1 mm 2 mps 750 mmHg 91%
    06:00 +12°C° 0.3 mm 2 mps 750 mmHg 90%
    07:00 +12°C° 0.3 mm 1 mps 750 mmHg 88%
    08:00 +13°C° 0.3 mm 1 mps 750 mmHg 86%
    09:00 +13°C° 0.3 mm 1 mps 750 mmHg 83%
    10:00 +14°C° 0.3 mm 1 mps 750 mmHg 81%
    11:00 +15°C° 0.3 mm 1 mps 749 mmHg 78%
    12:00 +16°C° 0.1 mm 1 mps 749 mmHg 71%
    13:00 +18°C° 0.1 mm 1 mps 749 mmHg 64%
    14:00 +19°C° 0.1 mm 1 mps 749 mmHg 57%
    15:00 +18°C° 0.2 mm 1 mps 748 mmHg 61%
    16:00 +18°C° 0.2 mm 1 mps 748 mmHg 65%
    17:00 +18°C° 0.2 mm 1 mps 748 mmHg 68%
    18:00 +15°C° 0.3 mm 1 mps 748 mmHg 75%
    19:00 +14°C° 0.3 mm 1 mps 748 mmHg 81%
    20:00 +12°C° 0.3 mm 1 mps 747 mmHg 87%
    21:00 +12°C° 0 mm 1 mps 747 mmHg 88%
    22:00 +11°C° 0 mm 1 mps 747 mmHg 88%
    23:00 +11°C° 0 mm 1 mps 747 mmHg 89%

    28 May, Thursday

    Time Temperature Precipitation Wind Pressure Humidity
    00:00 +10°C° 0 mm 1 mps 747 mmHg 90%
    01:00 +10°C° 0 mm 1 mps 747 mmHg 90%
    02:00 +10°C° 0 mm 1 mps 746 mmHg 91%
    03:00 +10°C° 0 mm 1 mps 746 mmHg 91%
    04:00 +10°C° 0 mm 1 mps 746 mmHg 92%
    05:00 +11°C° 0 mm 1 mps 746 mmHg 92%
    06:00 +12°C° 0 mm 1 mps 746 mmHg 88%
    07:00 +13°C° 0 mm 1 mps 746 mmHg 84%
    08:00 +14°C° 0 mm 1 mps 746 mmHg 80%
    09:00 +15°C° 0.6 mm 1 mps 746 mmHg 77%
    10:00 +16°C° 0.6 mm 2 mps 746 mmHg 74%
    11:00 +17°C° 0.6 mm 2 mps 745 mmHg 71%
    12:00 +18°C° 0.7 mm 2 mps 745 mmHg 70%
    13:00 +18°C° 0.7 mm 2 mps 745 mmHg 70%
    14:00 +19°C° 0.7 mm 2 mps 744 mmHg 69%
    15:00 +18°C° 0.8 mm 2 mps 744 mmHg 73%
    16:00 +18°C° 0.8 mm 2 mps 744 mmHg 77%
    17:00 +18°C° 0.8 mm 2 mps 744 mmHg 80%
    18:00 +16°C° 0.2 mm 2 mps 744 mmHg 84%
    19:00 +15°C° 0.2 mm 2 mps 744 mmHg 88%
    20:00 +14°C° 0.2 mm 2 mps 744 mmHg 92%
    21:00 +13°C° 0 mm 2 mps 744 mmHg 93%
    22:00 +13°C° 0 mm 2 mps 743 mmHg 95%
    23:00 +12°C° 0 mm 2 mps 743 mmHg 96%

    29 May, Friday

    Time Temperature Precipitation Wind Pressure Humidity
    00:00 +12°C° 0.3 mm 2 mps 743 mmHg 96%
    01:00 +12°C° 0.3 mm 1 mps 743 mmHg 97%
    02:00 +12°C° 0.3 mm 1 mps 742 mmHg 98%
    03:00 +12°C° 0.3 mm 2 mps 742 mmHg 97%
    04:00 +12°C° 0.3 mm 2 mps 742 mmHg 97%
    05:00 +11°C° 0.3 mm 3 mps 741 mmHg 96%
    06:00 +12°C° 0.1 mm 4 mps 741 mmHg 95%
    07:00 +12°C° 0.1 mm 4 mps 741 mmHg 95%
    08:00 +12°C° 0.1 mm 5 mps 740 mmHg 94%
    09:00 +13°C° 0.7 mm 4 mps 740 mmHg 95%
    10:00 +13°C° 0.7 mm 4 mps 740 mmHg 96%
    11:00 +14°C° 0.7 mm 4 mps 740 mmHg 97%
    12:00 +15°C° 1 mm 4 mps 740 mmHg 94%
    13:00 +17°C° 1 mm 3 mps 739 mmHg 91%
    14:00 +19°C° 1 mm 3 mps 739 mmHg 88%
    15:00 +19°C° 0.8 mm 3 mps 739 mmHg 87%
    16:00 +19°C° 0.8 mm 3 mps 739 mmHg 87%
    17:00 +19°C° 0.8 mm 3 mps 739 mmHg 87%
    18:00 +18°C° 0.2 mm 2 mps 739 mmHg 90%
    19:00 +17°C° 0.2 mm 2 mps 740 mmHg 92%
    20:00 +15°C° 0.2 mm 2 mps 740 mmHg 95%
    21:00 +15°C° 0 mm 1 mps 740 mmHg 96%
    22:00 +14°C° 0 mm 1 mps 740 mmHg 96%
    23:00 +13°C° 0 mm 1 mps 741 mmHg 97%

    30 May, Saturday

    Time Temperature Precipitation Wind Pressure Humidity
    00:00 +13°C° 0 mm 1 mps 741 mmHg 97%
    01:00 +12°C° 0 mm 1 mps 741 mmHg 97%
    02:00 +12°C° 0 mm 1 mps 741 mmHg 97%
    03:00 +12°C° 0 mm 1 mps 742 mmHg 97%
    04:00 +13°C° 0 mm 1 mps 742 mmHg 97%
    05:00 +13°C° 0 mm 1 mps 742 mmHg 96%
    06:00 +14°C° 0 mm 1 mps 742 mmHg 92%
    07:00 +16°C° 0 mm 1 mps 742 mmHg 88%
    08:00 +18°C° 0 mm 1 mps 742 mmHg 84%
    09:00 +19°C° 0 mm 1 mps 743 mmHg 78%
    10:00 +21°C° 0 mm 1 mps 743 mmHg 72%
    11:00 +22°C° 0 mm 1 mps 743 mmHg 65%
    12:00 +22°C° 0.2 mm 1 mps 743 mmHg 70%
    13:00 +21°C° 0.2 mm 1 mps 742 mmHg 74%
    14:00 +21°C° 0.2 mm 1 mps 742 mmHg 79%
    15:00 +20°C° 0.3 mm 1 mps 742 mmHg 83%
    16:00 +19°C° 0.3 mm 2 mps 742 mmHg 86%
    17:00 +18°C° 0.3 mm 2 mps 742 mmHg 90%
    18:00 +18°C° 0.2 mm 2 mps 742 mmHg 91%
    19:00 +17°C° 0.2 mm 3 mps 741 mmHg 93%
    20:00 +17°C° 0.2 mm 3 mps 741 mmHg 95%
    21:00 +17°C° 0.1 mm 3 mps 741 mmHg 96%
    22:00 +16°C° 0.1 mm 3 mps 740 mmHg 96%
    23:00 +16°C° 0.1 mm 3 mps 740 mmHg 97%
    Show more